Date String (YYYY-MM-DD hh:mm:ss) UTC,Instrument flags,Ambient pressure (hPa),Sample flow (lpm),Bypass flow (lpm),Sample temperature (°C),Ambient temperature (°C),ASC tube jacket temperature (°C),LED temperature (°C),Box temperature (°C),Sample RH (%),Span deviation,Mass concentration (μg/m³),Mass concentration (μg/m³),Mass concentration (μg/m³)
DateTimeUTC,F1_M11,P_M11,Q1_M11,Q2_M11,T1_M11,T2_M11,T3_M11,T4_M11,T5_M11,U1_M11,ZSPAN_M11,X2_M11,X0_M11,X1_M11
2022-06-28 02:00:00,,0832.6,5.01,0.00,29.3,27.9,00.0,38.1,31.2,21.0,0000.0,0002.14,0006.62,0001.68
2022-06-28 02:01:00,,0832.6,5.00,0.00,29.3,28.0,00.0,38.1,31.2,21.1,0000.0,0002.19,0006.79,0001.68
2022-06-28 02:02:00,,0832.6,4.98,0.00,29.3,28.1,00.0,38.1,31.2,21.2,0000.0,0002.16,0006.77,0001.68
2022-06-28 02:03:00,,0832.6,5.00,0.00,29.3,28.2,00.0,38.1,31.3,20.8,0000.0,0002.13,0006.68,0001.69
2022-06-28 02:04:00,,0832.6,5.01,0.00,29.3,28.3,00.0,38.1,31.3,20.6,0000.0,0002.14,0006.46,0001.70
2022-06-28 02:05:00,,0832.6,4.98,0.00,29.4,28.4,00.0,38.1,31.3,20.4,0000.0,0002.18,0005.18,0001.71
2022-06-28 02:06:00,,0832.6,5.01,0.00,29.4,28.4,00.0,38.2,31.4,20.3,0000.0,0002.22,0005.10,0001.73
2022-06-28 02:07:00,,0832.6,5.00,0.00,29.4,28.5,00.0,38.2,31.4,19.8,0000.0,0002.23,0005.10,0001.74
2022-06-28 02:08:00,,0832.6,4.99,0.00,29.5,28.5,00.0,38.2,31.4,19.0,0000.0,0002.22,0005.15,0001.75
2022-06-28 02:09:00,,0832.6,4.99,0.00,29.5,28.1,00.0,38.1,31.3,18.2,0000.0,0002.20,0005.12,0001.74
2022-06-28 02:10:00,,0832.6,5.00,0.00,29.4,27.4,00.0,38.1,31.1,17.5,0000.0,0002.22,0004.52,0001.75
2022-06-28 02:11:00,,0832.6,5.01,0.00,29.3,27.2,00.0,38.1,31.0,18.1,0000.0,0002.24,0003.77,0001.76
2022-06-28 02:12:00,,0832.5,4.99,0.00,29.3,27.2,00.0,38.1,31.0,18.5,0000.0,0002.23,0003.72,0001.78
2022-06-28 02:13:00,,0832.5,5.01,0.00,29.2,27.3,00.0,38.1,31.0,18.2,0000.0,0002.25,0003.62,0001.79
2022-06-28 02:14:00,,0832.5,5.01,0.00,29.2,27.5,00.0,38.1,31.1,17.1,0000.0,0002.28,0003.67,0001.79
2022-06-28 02:15:00,,0832.5,5.00,0.00,29.2,27.6,00.0,38.1,31.1,17.0,0000.0,0002.29,0003.61,0001.78
2022-06-28 02:16:00,,0832.4,4.99,0.00,29.2,27.8,00.0,38.1,31.1,17.7,0000.0,0002.25,0003.45,0001.78
2022-06-28 02:17:00,,0832.5,4.99,0.00,29.3,27.9,00.0,38.1,31.2,17.6,0000.0,0002.20,0003.34,0001.78
2022-06-28 02:18:00,,0832.5,5.01,0.00,29.3,28.0,00.0,38.1,31.2,17.8,0000.0,0002.20,0003.35,0001.78
2022-06-28 02:19:00,,0832.5,5.00,0.00,29.3,28.1,00.0,38.1,31.2,18.0,0000.0,0002.19,0003.29,0001.77
2022-06-28 02:20:00,,0832.5,5.00,0.00,29.3,28.2,00.0,38.1,31.3,17.2,0000.0,0002.18,0003.26,0001.77
2022-06-28 02:21:00,,0832.6,5.00,0.00,29.4,28.3,00.0,38.1,31.3,17.4,0000.0,0002.17,0003.21,0001.77
2022-06-28 02:22:00,,0832.6,5.00,0.00,29.4,28.4,00.0,38.1,31.4,17.2,0000.0,0002.14,0003.13,0001.78
2022-06-28 02:23:00,,0832.7,4.99,0.00,29.4,28.5,00.0,38.1,31.4,17.2,0000.0,0002.11,0003.02,0001.77
2022-06-28 02:24:00,,0832.8,4.99,0.00,29.4,28.5,00.0,38.2,31.4,17.4,0000.0,0002.13,0003.38,0001.77
2022-06-28 02:25:00,,0832.8,5.01,0.00,29.5,28.4,00.0,38.2,31.4,16.8,0000.0,0002.14,0003.64,0001.79
2022-06-28 02:26:00,,0832.8,4.99,0.00,29.4,27.7,00.0,38.1,31.2,16.9,0000.0,0002.14,0004.11,0001.80
2022-06-28 02:27:00,,0832.8,5.00,0.00,29.4,27.3,00.0,38.1,31.1,17.7,0000.0,0002.14,0004.43,0001.79
2022-06-28 02:28:00,,0832.9,4.99,0.00,29.3,27.2,00.0,38.1,31.1,17.8,0000.0,0002.18,0004.55,0001.79
2022-06-28 02:29:00,,0832.9,4.99,0.00,29.3,27.3,00.0,38.1,31.1,17.6,0000.0,0002.19,0004.59,0001.79
2022-06-28 02:30:00,,0833.0,5.01,0.00,29.2,27.4,00.0,38.1,31.1,17.5,0000.0,0002.21,0004.67,0001.80
2022-06-28 02:31:00,,0833.1,5.00,0.00,29.2,27.6,00.0,38.1,31.1,17.7,0000.0,0002.21,0004.81,0001.80
2022-06-28 02:32:00,,0833.1,5.00,0.00,29.3,27.7,00.0,38.1,31.1,18.1,0000.0,0002.21,0004.88,0001.80
2022-06-28 02:33:00,,0833.1,4.98,0.00,29.3,27.9,00.0,38.1,31.2,17.7,0000.0,0002.22,0004.93,0001.79
2022-06-28 02:34:00,,0833.2,5.00,0.00,29.3,28.0,00.0,38.1,31.2,17.2,0000.0,0002.23,0004.94,0001.79
2022-06-28 02:35:00,,0833.2,5.01,0.00,29.3,28.1,00.0,38.1,31.2,17.4,0000.0,0002.18,0004.63,0001.78
2022-06-28 02:36:00,,0833.2,5.00,0.00,29.3,28.2,00.0,38.1,31.3,17.5,0000.0,0002.11,0004.18,0001.76
2022-06-28 02:37:00,,0833.1,4.98,0.00,29.4,28.3,00.0,38.1,31.3,17.4,0000.0,0002.07,0003.75,0001.73
2022-06-28 02:38:00,,0833.2,5.01,0.00,29.4,28.4,00.0,38.1,31.3,18.1,0000.0,0002.07,0003.32,0001.72
2022-06-28 02:39:00,,0833.1,5.01,0.00,29.4,28.5,00.0,38.1,31.4,17.6,0000.0,0002.06,0003.33,0001.71
2022-06-28 02:40:00,,0833.2,4.99,0.00,29.4,28.5,00.0,38.2,31.4,17.1,0000.0,0002.03,0003.57,0001.69
2022-06-28 02:41:00,,0833.2,5.01,0.00,29.5,28.6,00.0,38.2,31.4,17.0,0000.0,0002.00,0003.49,0001.68
2022-06-28 02:42:00,,0833.2,5.01,0.00,29.5,28.5,00.0,38.2,31.4,17.0,0000.0,0001.98,0003.35,0001.66
2022-06-28 02:43:00,,0833.2,5.00,0.00,29.5,27.8,00.0,38.1,31.3,16.8,0000.0,0001.96,0003.23,0001.64
2022-06-28 02:44:00,,0833.2,5.00,0.00,29.4,27.4,00.0,38.1,31.2,17.1,0000.0,0001.96,0003.22,0001.62
2022-06-28 02:45:00,,0833.2,5.01,0.00,29.3,27.4,00.0,38.1,31.1,17.1,0000.0,0001.92,0003.18,0001.59
2022-06-28 02:46:00,,0833.3,5.00,0.00,29.3,27.4,00.0,38.1,31.1,17.1,0000.0,0001.99,0003.35,0001.59
2022-06-28 02:47:00,,0833.3,5.01,0.00,29.3,27.5,00.0,38.1,31.1,17.2,0000.0,0002.03,0003.54,0001.59
2022-06-28 02:48:00,,0833.4,4.99,0.00,29.3,27.7,00.0,38.1,31.1,17.2,0000.0,0002.02,0003.54,0001.59
2022-06-28 02:49:00,,0833.4,4.99,0.00,29.3,27.8,00.0,38.1,31.2,17.2,0000.0,0001.99,0003.45,0001.59
2022-06-28 02:50:00,,0833.5,5.00,0.00,29.3,27.9,00.0,38.1,31.2,17.5,0000.0,0001.95,0003.30,0001.59
2022-06-28 02:51:00,,0833.5,5.00,0.00,29.3,28.0,00.0,38.1,31.2,18.2,0000.0,0001.95,0003.00,0001.58
2022-06-28 02:52:00,,0833.6,5.01,0.00,29.3,28.1,00.0,38.1,31.3,18.6,0000.0,0001.95,0003.05,0001.57
2022-06-28 02:53:00,,0833.7,5.00,0.00,29.4,28.2,00.0,38.1,31.3,18.3,0000.0,0002.02,0004.58,0001.57
2022-06-28 02:54:00,,0833.7,4.99,0.00,29.4,28.3,00.0,38.1,31.3,18.4,0000.0,0002.05,0004.70,0001.58
2022-06-28 02:55:00,,0833.7,5.00,0.00,29.4,28.4,00.0,38.2,31.4,18.8,0000.0,0002.06,0005.15,0001.58
2022-06-28 02:56:00,,0833.7,5.01,0.00,29.4,28.5,00.0,38.2,31.4,19.0,0000.0,0002.13,0005.85,0001.58
2022-06-28 02:57:00,,0833.7,5.01,0.00,29.5,28.5,00.0,38.2,31.4,19.4,0000.0,0002.12,0005.91,0001.60
2022-06-28 02:58:00,,0833.7,5.00,0.00,29.5,28.6,00.0,38.2,31.4,19.4,0000.0,0002.17,0006.03,0001.62
2022-06-28 02:59:00,,0833.7,5.00,0.00,29.5,28.6,00.0,38.2,31.5,19.6,0000.0,0002.23,0006.73,0001.64
